Regional Weather Roundup
Issued by NWS

Home | Current Version | Previous Version | Graphics & Text | Print | Product List | Glossary On
Versions: 1 2 3 4 5 6 7 8 9 10 11 12 13 14 15 16 17 18 19 20 21 22 23 24 25 26 27 28 29 30 31 32 33 34 35 36 37 38 39 40 41 42 43 44 45 46 47 48 49 50
000
ASUS43 KLSX 170157
RWRMO

WEATHER SUMMARY FOR MISSOURI
NATIONAL WEATHER SERVICE SPRINGFIELD MO
800 PM CST THU NOV 16 2017

NOTE: "FAIR" INDICATES FEW OR NO CLOUDS BELOW 12,000 FEET WITH NO
       SIGNIFICANT WEATHER AND/OR OBSTRUCTIONS TO VISIBILITY.
       CURRENT SKY AND/OR WEATHER CONDITIONS ARE NOT AVAILABLE FOR
       CHILLICOTHE AND FARMINGTON.

MOZ001>031-035>038-043-044-053-054-170300-
...NORTHERN AND WESTERN MISSOURI...

CITY           SKY/WX    TMP DP  RH WIND       PRES   REMARKS
KANSAS CTY INT CLOUDY    45  30  55 SE16      30.02F
LEE`S SUMMIT   CLOUDY    46  31  55 SE13      30.04F
ST JOSEPH      CLOUDY    43  28  55 SE10      30.01F
CHILLICOTHE      N/A     39  30  70 SE6       30.10F

$$
MOZ066>068-077>081-088>096-101>105-170300-
...SOUTHWEST MISSOURI...

CITY           SKY/WX    TMP DP  RH WIND       PRES   REMARKS
SPRINGFIELD    CLEAR     48  33  56 SE9       30.07F
JOPLIN         CLOUDY    56  39  53 SE12G20   30.04F
BRANSON        PTCLDY    50  37  62 E12       30.11S

$$
MOZ032>034-039>042-045>050-055>058-069>072-170300-
...CENTRAL MISSOURI...

CITY           SKY/WX    TMP DP  RH WIND       PRES   REMARKS
COLUMBIA       NOT AVBL
JEFFERSON CITY CLEAR     43  28  55 E10       30.13F
ROLLA          CLEAR     39  28  64 E8        30.14S
SEDALIA        CLEAR     40  32  73 SE8       30.10F
WARRENSBURG    CLEAR     41  32  70 E6        30.07F

$$
MOZ051-052-059>065-170300-
...EAST CENTRAL MISSOURI...

CITY           SKY/WX    TMP DP  RH WIND       PRES   REMARKS
ST LOUIS INTL  CLOUDY    36  31  82 E8        30.21R WCI  30

$$
MOZ072>076-082>087-097>100-106>115-170300-
...SOUTH CENTRAL AND SOUTHEAST MISSOURI...

CITY           SKY/WX    TMP DP  RH WIND       PRES   REMARKS
CAPE GIRARDEAU CLEAR     38  33  82 NE7       30.21S
POPLAR BLUFF   CLEAR     39  36  89 CALM      30.20R
WEST PLAINS    CLEAR     46  31  55 SE6       30.15R

$$



USA.gov is the U.S. government's official web portal to all federal, state and local government web resources and services.